AK6OS Weather Reports


time (UTC)temp
C
wind
direction
speed
KPH
gust
KPH
rain 1hr
cm
rain 24hr
cm
rain mn
cm
humidity
%
barometer
mb
20260503224517 20 279 4.8 14.5 0.00 0.00 0.00 56 1015.4
20260503223517 20 238 4.8 11.3 0.00 0.00 0.00 55 1015.4
20260503222517 20 231 4.8 12.9 0.00 0.00 0.00 55 1015.4
20260503221519 20 262 4.8 12.9 0.00 0.00 0.00 55 1015.5
20260503220517 20 241 4.8 11.3 0.00 0.00 0.00 55 1015.6
20260503215518 20 278 3.2 8.0 0.00 0.00 0.00 54 1015.7
20260503214559 20 268 3.2 9.7 0.00 0.00 0.00 58 1015.7
20260503213518 20 271 3.2 9.7 0.00 0.00 0.00 59 1015.7
20260503212538 19 261 4.8 9.7 0.00 0.00 0.00 61 1015.7
20260503211519 19 258 4.8 14.5 0.00 0.00 0.00 58 1015.6
20260503210520 20 286 4.8 11.3 0.00 0.00 0.00 58 1015.8
20260503205517 19 230 3.2 9.7 0.00 0.00 0.00 59 1015.8
20260503204516 19 259 4.8 12.9 0.00 0.00 0.00 59 1015.9
20260503203516 19 287 4.8 12.9 0.00 0.00 0.00 60 1016.0
20260503202516 18 251 4.8 12.9 0.00 0.00 0.00 61 1016.0
20260503201517 18 264 4.8 12.9 0.00 0.00 0.00 62 1016.1
20260503200516 18 238 3.2 9.7 0.00 0.00 0.00 61 1016.1
20260503195517 19 277 4.8 12.9 0.00 0.00 0.00 61 1016.1
20260503194518 18 272 4.8 9.7 0.00 0.00 0.00 60 1016.2
20260503193517 18 232 4.8 9.7 0.00 0.00 0.00 59 1016.2
20260503192538 19 267 4.8 9.7 0.00 0.00 0.00 56 1016.2
20260503191520 19 275 3.2 9.7 0.00 0.00 0.00 56 1016.2
20260503190538 19 231 3.2 9.7 0.00 0.00 0.00 55 1016.2
20260503185518 20 285 3.2 9.7 0.00 0.00 0.00 54 1016.3
20260503184518 18 242 3.2 9.7 0.00 0.00 0.00 55 1016.4
20260503183518 18 295 3.2 9.7 0.00 0.00 0.00 56 1016.4
20260503182518 18 231 3.2 8.0 0.00 0.00 0.00 57 1016.5
20260503181515 17 220 3.2 6.4 0.00 0.00 0.00 59 1016.5
20260503180519 17 210 3.2 9.7 0.00 0.00 0.00 59 1016.6
20260503175515 17 265 3.2 6.4 0.00 0.00 0.00 61 1016.5
20260503174517 17 324 3.2 6.4 0.00 0.00 0.00 62 1016.6
20260503173516 17 316 3.2 8.0 0.00 0.00 0.00 64 1016.6
20260503172516 16 280 1.6 8.0 0.00 0.00 0.00 65 1016.6
20260503171557 16 317 3.2 8.0 0.00 0.00 0.00 68 1016.5
20260503170518 16 283 3.2 6.4 0.00 0.00 0.00 70 1016.5
20260503150517 14 268 1.6 6.4 0.00 0.00 0.00 83 1015.7
20260503130518 12 185 0.0 1.6 0.00 0.00 0.00 89 1014.6
20260503110517 12 173 0.0 1.6 0.00 0.00 0.00 88 1014.5
20260503081521 13 38 1.6 4.8 0.00 0.00 0.00 85 1015.0
20260503080519 13 344 3.2 6.4 0.00 0.00 0.00 86 1015.1
20260503072519 13 204 0.0 1.6 0.00 0.00 0.00 87 1015.0
20260503071517 13 157 0.0 1.6 0.00 0.00 0.00 88 1014.9
20260503070519 13 166 0.0 3.2 0.00 0.00 0.00 88 1014.8
20260503054517 12 158 1.6 3.2 0.00 0.00 0.00 90 1014.5
20260503053517 12 166 3.2 4.8 0.00 0.00 0.00 90 1014.5
20260503052518 11 161 1.6 4.8 0.00 0.00 0.00 90 1014.5
20260503051517 11 149 1.6 4.8 0.00 0.00 0.00 90 1014.4
20260503050537 11 166 3.2 4.8 0.00 0.00 0.00 90 1014.3
20260503045518 12 176 1.6 4.8 0.00 0.00 0.00 89 1014.1
20260503044518 12 159 1.6 4.8 0.00 0.00 0.00 89 1014.1
20260503043517 12 154 0.0 1.6 0.00 0.00 0.00 88 1014.0
20260503042518 12 151 0.0 3.2 0.00 0.00 0.00 87 1014.0
20260503041518 13 174 0.0 3.2 0.00 0.00 0.00 86 1014.0
20260503040538 13 60 1.6 4.8 0.00 0.00 0.00 86 1014.0
20260503035518 13 45 1.6 4.8 0.00 0.00 0.00 86 1014.0
20260503034518 13 25 1.6 4.8 0.00 0.00 0.00 86 1013.8
20260503033518 13 22 1.6 6.4 0.00 0.00 0.00 86 1013.8
20260503032515 13 198 1.6 3.2 0.00 0.00 0.00 86 1013.7
20260503031516 13 203 3.2 8.0 0.00 0.00 0.00 86 1013.7
20260503030516 13 204 3.2 8.0 0.00 0.00 0.00 85 1013.6
20260503025517 13 201 1.6 6.4 0.00 0.00 0.00 84 1013.5
20260503024516 14 203 3.2 6.4 0.00 0.00 0.00 83 1013.4
20260503023516 15 220 3.2 11.3 0.00 0.00 0.00 82 1013.2
20260503022558 15 220 3.2 6.4 0.00 0.00 0.00 79 1013.2
20260503021537 15 212 3.2 8.0 0.00 0.00 0.00 77 1013.3
20260503020517 16 267 3.2 8.0 0.00 0.00 0.00 76 1013.3
20260503015518 16 221 3.2 6.4 0.00 0.00 0.00 74 1013.3
20260503014518 17 276 3.2 8.0 0.00 0.00 0.00 72 1013.4
20260503013517 17 247 3.2 8.0 0.00 0.00 0.00 70 1013.4
20260503012518 17 249 3.2 8.0 0.00 0.00 0.00 71 1013.4
20260503011518 17 235 3.2 6.4 0.00 0.00 0.00 69 1013.5
20260503010518 17 251 3.2 8.0 0.00 0.00 0.00 69 1013.5
20260503005518 18 274 3.2 8.0 0.00 0.00 0.00 68 1013.6
20260503004518 18 301 3.2 9.7 0.00 0.00 0.00 66 1013.6
20260503003515 19 250 3.2 8.0 0.00 0.00 0.00 65 1013.6
20260503002518 19 257 3.2 8.0 0.00 0.00 0.00 65 1013.6
20260503001535 19 238 1.6 6.4 0.00 0.00 0.00 66 1013.6
20260503000516 19 282 3.2 8.0 0.00 0.00 0.00 65 1013.6
20260502235536 19 233 3.2 11.3 0.00 0.00 0.00 64 1013.6
20260502234556 19 275 3.2 9.7 0.00 0.00 0.00 64 1013.6
20260502233516 19 232 3.2 8.0 0.00 0.00 0.00 65 1013.7
20260502232517 20 263 3.2 12.9 0.00 0.00 0.00 64 1013.8
20260502231517 20 265 3.2 11.3 0.00 0.00 0.00 64 1014.0
20260502230517 20 264 3.2 9.7 0.00 0.00 0.00 63 1014.1
20260502225517 19 265 3.2 11.3 0.00 0.00 0.00 64 1014.2